#datetime,building,power
2022-04-26T00:00:00,sdl,20.34
2022-04-26T00:01:00,sdl,20.04
2022-04-26T00:02:00,sdl,20.18
2022-04-26T00:03:00,sdl,20.13
2022-04-26T00:04:00,sdl,20.20
2022-04-26T00:05:00,sdl,20.22
2022-04-26T00:06:00,sdl,21.27
2022-04-26T00:07:00,sdl,20.16
2022-04-26T00:08:00,sdl,20.16
2022-04-26T00:09:00,sdl,17.90
2022-04-26T00:10:00,sdl,18.32
2022-04-26T00:11:00,sdl,18.02
2022-04-26T00:12:00,sdl,17.93
2022-04-26T00:13:00,sdl,19.28
2022-04-26T00:14:00,sdl,18.07
2022-04-26T00:15:00,sdl,18.06
2022-04-26T00:16:00,sdl,18.50
2022-04-26T00:17:00,sdl,18.17
2022-04-26T00:18:00,sdl,18.20
2022-04-26T00:19:00,sdl,18.15
2022-04-26T00:20:00,sdl,18.23
2022-04-26T00:21:00,sdl,18.20
2022-04-26T00:22:00,sdl,18.21
2022-04-26T00:23:00,sdl,18.01
2022-04-26T00:24:00,sdl,18.12
2022-04-26T00:25:00,sdl,18.18
2022-04-26T00:26:00,sdl,18.09
2022-04-26T00:27:00,sdl,17.94
2022-04-26T00:28:00,sdl,17.77
2022-04-26T00:29:00,sdl,17.89
2022-04-26T00:30:00,sdl,18.24
2022-04-26T00:31:00,sdl,18.24
2022-04-26T00:32:00,sdl,17.90
2022-04-26T00:33:00,sdl,17.94
2022-04-26T00:34:00,sdl,17.93
2022-04-26T00:35:00,sdl,17.89
2022-04-26T00:36:00,sdl,17.98
2022-04-26T00:37:00,sdl,17.93
2022-04-26T00:38:00,sdl,17.76
2022-04-26T00:39:00,sdl,17.60
2022-04-26T00:40:00,sdl,17.66
2022-04-26T00:41:00,sdl,17.38
2022-04-26T00:42:00,sdl,18.48
2022-04-26T00:43:00,sdl,17.48
2022-04-26T00:44:00,sdl,17.42
2022-04-26T00:45:00,sdl,17.33
2022-04-26T00:46:00,sdl,19.64
2022-04-26T00:47:00,sdl,19.59
2022-04-26T00:48:00,sdl,19.91
2022-04-26T00:49:00,sdl,19.94
2022-04-26T00:50:00,sdl,19.72
2022-04-26T00:51:00,sdl,19.74
2022-04-26T00:52:00,sdl,19.72
2022-04-26T00:53:00,sdl,19.64
2022-04-26T00:54:00,sdl,19.66
2022-04-26T00:55:00,sdl,19.67
2022-04-26T00:56:00,sdl,20.15
2022-04-26T00:57:00,sdl,20.32
2022-04-26T00:58:00,sdl,20.27
2022-04-26T00:59:00,sdl,20.18
2022-04-26T01:00:00,sdl,20.14
2022-04-26T01:01:00,sdl,19.06
2022-04-26T01:02:00,sdl,17.95
2022-04-26T01:03:00,sdl,17.98
2022-04-26T01:04:00,sdl,18.32
2022-04-26T01:05:00,sdl,18.46
2022-04-26T01:06:00,sdl,18.04
2022-04-26T01:07:00,sdl,17.99
2022-04-26T01:08:00,sdl,17.94
2022-04-26T01:09:00,sdl,17.90
2022-04-26T01:10:00,sdl,17.88
2022-04-26T01:11:00,sdl,17.89
2022-04-26T01:12:00,sdl,17.92
2022-04-26T01:13:00,sdl,17.98
2022-04-26T01:14:00,sdl,17.98
2022-04-26T01:15:00,sdl,18.04
2022-04-26T01:16:00,sdl,17.99
2022-04-26T01:17:00,sdl,17.97
2022-04-26T01:18:00,sdl,20.17
2022-04-26T01:19:00,sdl,20.24
2022-04-26T01:20:00,sdl,20.85
2022-04-26T01:21:00,sdl,20.03
2022-04-26T01:22:00,sdl,20.15
2022-04-26T01:23:00,sdl,20.10
2022-04-26T01:24:00,sdl,19.98
2022-04-26T01:25:00,sdl,19.61
2022-04-26T01:26:00,sdl,19.82
2022-04-26T01:27:00,sdl,20.11
2022-04-26T01:28:00,sdl,17.83
2022-04-26T01:29:00,sdl,17.74
2022-04-26T01:30:00,sdl,17.92
2022-04-26T01:31:00,sdl,17.92
2022-04-26T01:32:00,sdl,18.97
2022-04-26T01:33:00,sdl,18.46
2022-04-26T01:34:00,sdl,18.59
2022-04-26T01:35:00,sdl,18.23
2022-04-26T01:36:00,sdl,18.14
2022-04-26T01:37:00,sdl,17.86
2022-04-26T01:38:00,sdl,17.94
2022-04-26T01:39:00,sdl,17.95
2022-04-26T01:40:00,sdl,17.87
2022-04-26T01:41:00,sdl,17.86
2022-04-26T01:42:00,sdl,17.96
2022-04-26T01:43:00,sdl,18.05
2022-04-26T01:44:00,sdl,17.97
2022-04-26T01:45:00,sdl,17.57
2022-04-26T01:46:00,sdl,17.55
2022-04-26T01:47:00,sdl,17.49
2022-04-26T01:48:00,sdl,17.40
2022-04-26T01:49:00,sdl,17.40
2022-04-26T01:50:00,sdl,17.28
2022-04-26T01:51:00,sdl,17.81
2022-04-26T01:52:00,sdl,17.43
2022-04-26T01:53:00,sdl,17.44
2022-04-26T01:54:00,sdl,19.67
2022-04-26T01:55:00,sdl,19.49
2022-04-26T01:56:00,sdl,19.72
2022-04-26T01:57:00,sdl,19.71
2022-04-26T01:58:00,sdl,19.70
2022-04-26T01:59:00,sdl,19.67
2022-04-26T02:00:00,sdl,19.72
2022-04-26T02:01:00,sdl,24.18
2022-04-26T02:02:00,sdl,24.02
2022-04-26T02:03:00,sdl,24.02
2022-04-26T02:04:00,sdl,24.04
2022-04-26T02:05:00,sdl,24.02
2022-04-26T02:06:00,sdl,24.36
2022-04-26T02:07:00,sdl,24.51
2022-04-26T02:08:00,sdl,24.08
2022-04-26T02:09:00,sdl,24.08
2022-04-26T02:10:00,sdl,24.18
2022-04-26T02:11:00,sdl,22.73
2022-04-26T02:12:00,sdl,21.79
2022-04-26T02:13:00,sdl,21.71
2022-04-26T02:14:00,sdl,21.76
2022-04-26T02:15:00,sdl,21.78
2022-04-26T02:16:00,sdl,21.79
2022-04-26T02:17:00,sdl,21.82
2022-04-26T02:18:00,sdl,21.98
2022-04-26T02:19:00,sdl,21.96
2022-04-26T02:20:00,sdl,21.89
2022-04-26T02:21:00,sdl,22.00
2022-04-26T02:22:00,sdl,22.03
2022-04-26T02:23:00,sdl,22.18
2022-04-26T02:24:00,sdl,21.93
2022-04-26T02:25:00,sdl,23.11
2022-04-26T02:26:00,sdl,21.95
2022-04-26T02:27:00,sdl,21.97
2022-04-26T02:28:00,sdl,21.91
2022-04-26T02:29:00,sdl,21.92
2022-04-26T02:30:00,sdl,22.00
2022-04-26T02:31:00,sdl,21.97
2022-04-26T02:32:00,sdl,22.57
2022-04-26T02:33:00,sdl,22.51
2022-04-26T02:34:00,sdl,22.48
2022-04-26T02:35:00,sdl,22.56
2022-04-26T02:36:00,sdl,22.42
2022-04-26T02:37:00,sdl,22.39
2022-04-26T02:38:00,sdl,22.35
2022-04-26T02:39:00,sdl,22.44
2022-04-26T02:40:00,sdl,22.44
2022-04-26T02:41:00,sdl,23.13
2022-04-26T02:42:00,sdl,23.20
2022-04-26T02:43:00,sdl,23.70
2022-04-26T02:44:00,sdl,24.92
2022-04-26T02:45:00,sdl,24.30
2022-04-26T02:46:00,sdl,23.12
2022-04-26T02:47:00,sdl,23.30
2022-04-26T02:48:00,sdl,23.35
2022-04-26T02:49:00,sdl,25.53
2022-04-26T02:50:00,sdl,24.77
2022-04-26T02:51:00,sdl,24.81
2022-04-26T02:52:00,sdl,24.79
2022-04-26T02:53:00,sdl,25.76
2022-04-26T02:54:00,sdl,24.86
2022-04-26T02:55:00,sdl,24.89
2022-04-26T02:56:00,sdl,24.68
2022-04-26T02:57:00,sdl,24.64
2022-04-26T02:58:00,sdl,24.57
2022-04-26T02:59:00,sdl,24.71
2022-04-26T03:00:00,sdl,24.61
2022-04-26T03:01:00,sdl,22.28
2022-04-26T03:02:00,sdl,22.22
2022-04-26T03:03:00,sdl,22.69
2022-04-26T03:04:00,sdl,23.47
2022-04-26T03:05:00,sdl,22.94
2022-04-26T03:06:00,sdl,22.69
2022-04-26T03:07:00,sdl,22.24
2022-04-26T03:08:00,sdl,23.48
2022-04-26T03:09:00,sdl,22.48
2022-04-26T03:10:00,sdl,22.54
2022-04-26T03:11:00,sdl,22.53
2022-04-26T03:12:00,sdl,22.52
2022-04-26T03:13:00,sdl,22.39
2022-04-26T03:14:00,sdl,22.34
2022-04-26T03:15:00,sdl,22.34
2022-04-26T03:16:00,sdl,24.60
2022-04-26T03:17:00,sdl,24.62
2022-04-26T03:18:00,sdl,24.89
2022-04-26T03:19:00,sdl,24.24
2022-04-26T03:20:00,sdl,24.97
2022-04-26T03:21:00,sdl,25.69
2022-04-26T03:22:00,sdl,24.15
2022-04-26T03:23:00,sdl,23.88
2022-04-26T03:24:00,sdl,24.48
2022-04-26T03:25:00,sdl,24.26
2022-04-26T03:26:00,sdl,24.25
2022-04-26T03:27:00,sdl,24.34
2022-04-26T03:28:00,sdl,22.03
2022-04-26T03:29:00,sdl,22.03
2022-04-26T03:30:00,sdl,22.10
2022-04-26T03:31:00,sdl,22.18
2022-04-26T03:32:00,sdl,22.16
2022-04-26T03:33:00,sdl,22.30
2022-04-26T03:34:00,sdl,22.30
2022-04-26T03:35:00,sdl,22.21
2022-04-26T03:36:00,sdl,22.26
2022-04-26T03:37:00,sdl,22.18
2022-04-26T03:38:00,sdl,22.01
2022-04-26T03:39:00,sdl,21.88
2022-04-26T03:40:00,sdl,22.09
2022-04-26T03:41:00,sdl,22.17
2022-04-26T03:42:00,sdl,22.16
2022-04-26T03:43:00,sdl,22.20
2022-04-26T03:44:00,sdl,22.31
2022-04-26T03:45:00,sdl,22.10
2022-04-26T03:46:00,sdl,22.22
2022-04-26T03:47:00,sdl,22.19
2022-04-26T03:48:00,sdl,22.14
2022-04-26T03:49:00,sdl,22.16
2022-04-26T03:50:00,sdl,22.24
2022-04-26T03:51:00,sdl,21.98
2022-04-26T03:52:00,sdl,22.08
2022-04-26T03:53:00,sdl,21.96
2022-04-26T03:54:00,sdl,22.09
2022-04-26T03:55:00,sdl,22.02
2022-04-26T03:56:00,sdl,22.89
2022-04-26T03:57:00,sdl,22.29
2022-04-26T03:58:00,sdl,22.25
2022-04-26T03:59:00,sdl,22.51
2022-04-26T04:00:00,sdl,24.65
2022-04-26T04:01:00,sdl,24.39
2022-04-26T04:02:00,sdl,24.47
2022-04-26T04:03:00,sdl,24.55
2022-04-26T04:04:00,sdl,24.50
2022-04-26T04:05:00,sdl,24.42
2022-04-26T04:06:00,sdl,24.48
2022-04-26T04:07:00,sdl,25.38
2022-04-26T04:08:00,sdl,24.46
2022-04-26T04:09:00,sdl,24.48
2022-04-26T04:10:00,sdl,24.52
2022-04-26T04:11:00,sdl,24.50
2022-04-26T04:12:00,sdl,25.21
2022-04-26T04:13:00,sdl,25.14
2022-04-26T04:14:00,sdl,25.05
2022-04-26T04:15:00,sdl,22.84
2022-04-26T04:16:00,sdl,22.78
2022-04-26T04:17:00,sdl,22.71
2022-04-26T04:18:00,sdl,22.71
2022-04-26T04:19:00,sdl,22.43
2022-04-26T04:20:00,sdl,24.07
2022-04-26T04:21:00,sdl,23.12
2022-04-26T04:22:00,sdl,22.75
2022-04-26T04:23:00,sdl,22.78
2022-04-26T04:24:00,sdl,22.78
2022-04-26T04:25:00,sdl,22.80
2022-04-26T04:26:00,sdl,23.42
2022-04-26T04:27:00,sdl,22.77
2022-04-26T04:28:00,sdl,22.66
2022-04-26T04:29:00,sdl,22.84
2022-04-26T04:30:00,sdl,22.75
2022-04-26T04:31:00,sdl,22.75
2022-04-26T04:32:00,sdl,22.61
2022-04-26T04:33:00,sdl,22.75
2022-04-26T04:34:00,sdl,22.59
2022-04-26T04:35:00,sdl,24.32
2022-04-26T04:36:00,sdl,22.67
2022-04-26T04:37:00,sdl,25.00
2022-04-26T04:38:00,sdl,25.08
2022-04-26T04:39:00,sdl,25.02
2022-04-26T04:40:00,sdl,24.84
2022-04-26T04:41:00,sdl,24.86
2022-04-26T04:42:00,sdl,25.01
2022-04-26T04:43:00,sdl,25.12
2022-04-26T04:44:00,sdl,25.15
2022-04-26T04:45:00,sdl,25.11
2022-04-26T04:46:00,sdl,25.05
2022-04-26T04:47:00,sdl,22.75
2022-04-26T04:48:00,sdl,22.68
2022-04-26T04:49:00,sdl,22.70
2022-04-26T04:50:00,sdl,22.94
2022-04-26T04:51:00,sdl,23.00
2022-04-26T04:52:00,sdl,22.60
2022-04-26T04:53:00,sdl,22.69
2022-04-26T04:54:00,sdl,22.80
2022-04-26T04:55:00,sdl,22.65
2022-04-26T04:56:00,sdl,22.33
2022-04-26T04:57:00,sdl,22.20
2022-04-26T04:58:00,sdl,22.22
2022-04-26T04:59:00,sdl,22.24
2022-04-26T05:00:00,sdl,22.25
2022-04-26T05:01:00,sdl,22.12
2022-04-26T05:02:00,sdl,22.50
2022-04-26T05:03:00,sdl,22.24
2022-04-26T05:04:00,sdl,22.16
2022-04-26T05:05:00,sdl,22.25
2022-04-26T05:06:00,sdl,23.14
2022-04-26T05:07:00,sdl,22.19
2022-04-26T05:08:00,sdl,24.37
2022-04-26T05:09:00,sdl,24.30
2022-04-26T05:10:00,sdl,24.28
2022-04-26T05:11:00,sdl,24.21
2022-04-26T05:12:00,sdl,24.34
2022-04-26T05:13:00,sdl,24.36
2022-04-26T05:14:00,sdl,24.30
2022-04-26T05:15:00,sdl,24.21
2022-04-26T05:16:00,sdl,24.48
2022-04-26T05:17:00,sdl,24.42
2022-04-26T05:18:00,sdl,24.38
2022-04-26T05:19:00,sdl,24.86
2022-04-26T05:20:00,sdl,25.50
2022-04-26T05:21:00,sdl,24.51
2022-04-26T05:22:00,sdl,24.46
2022-04-26T05:23:00,sdl,24.56
2022-04-26T05:24:00,sdl,22.17
2022-04-26T05:25:00,sdl,23.08
2022-04-26T05:26:00,sdl,21.89
2022-04-26T05:27:00,sdl,21.95
2022-04-26T05:28:00,sdl,22.10
2022-04-26T05:29:00,sdl,22.05
2022-04-26T05:30:00,sdl,22.22
2022-04-26T05:31:00,sdl,22.25
2022-04-26T05:32:00,sdl,22.12
2022-04-26T05:33:00,sdl,22.19
2022-04-26T05:34:00,sdl,22.37
2022-04-26T05:35:00,sdl,22.48
2022-04-26T05:36:00,sdl,23.34
2022-04-26T05:37:00,sdl,22.40
2022-04-26T05:38:00,sdl,22.90
2022-04-26T05:39:00,sdl,22.20
2022-04-26T05:40:00,sdl,22.39
2022-04-26T05:41:00,sdl,22.43
2022-04-26T05:42:00,sdl,22.46
2022-04-26T05:43:00,sdl,22.24
2022-04-26T05:44:00,sdl,22.68
2022-04-26T05:45:00,sdl,22.81
2022-04-26T05:46:00,sdl,22.79
2022-04-26T05:47:00,sdl,22.83
2022-04-26T05:48:00,sdl,23.15
2022-04-26T05:49:00,sdl,23.20
2022-04-26T05:50:00,sdl,22.80
2022-04-26T05:51:00,sdl,23.88
2022-04-26T05:52:00,sdl,22.72
2022-04-26T05:53:00,sdl,22.85
2022-04-26T05:54:00,sdl,22.69
2022-04-26T05:55:00,sdl,22.80
2022-04-26T05:56:00,sdl,22.93
2022-04-26T05:57:00,sdl,22.93
2022-04-26T05:58:00,sdl,22.88
2022-04-26T05:59:00,sdl,22.91
2022-04-26T06:00:00,sdl,22.84
2022-04-26T06:01:00,sdl,25.39
2022-04-26T06:02:00,sdl,25.28
2022-04-26T06:03:00,sdl,25.27
2022-04-26T06:04:00,sdl,25.15
2022-04-26T06:05:00,sdl,25.25
2022-04-26T06:06:00,sdl,25.36
2022-04-26T06:07:00,sdl,25.30
2022-04-26T06:08:00,sdl,25.37
2022-04-26T06:09:00,sdl,25.42
2022-04-26T06:10:00,sdl,25.40
2022-04-26T06:11:00,sdl,25.33
2022-04-26T06:12:00,sdl,25.25
2022-04-26T06:13:00,sdl,25.28
2022-04-26T06:14:00,sdl,25.47
2022-04-26T06:15:00,sdl,23.84
2022-04-26T06:16:00,sdl,22.62
2022-04-26T06:17:00,sdl,22.70
2022-04-26T06:18:00,sdl,22.81
2022-04-26T06:19:00,sdl,22.78
2022-04-26T06:20:00,sdl,23.21
2022-04-26T06:21:00,sdl,22.89
2022-04-26T06:22:00,sdl,22.28
2022-04-26T06:23:00,sdl,22.29
2022-04-26T06:24:00,sdl,22.34
2022-04-26T06:25:00,sdl,22.35
2022-04-26T06:26:00,sdl,22.01
2022-04-26T06:27:00,sdl,22.28
2022-04-26T06:28:00,sdl,22.21
2022-04-26T06:29:00,sdl,22.26
2022-04-26T06:30:00,sdl,24.59
2022-04-26T06:31:00,sdl,24.66
2022-04-26T06:32:00,sdl,24.70
2022-04-26T06:33:00,sdl,24.78
2022-04-26T06:34:00,sdl,24.72
2022-04-26T06:35:00,sdl,24.75
2022-04-26T06:36:00,sdl,24.77
2022-04-26T06:37:00,sdl,27.07
2022-04-26T06:38:00,sdl,26.85
2022-04-26T06:39:00,sdl,26.90
2022-04-26T06:40:00,sdl,24.68
2022-04-26T06:41:00,sdl,24.86
2022-04-26T06:42:00,sdl,24.76
2022-04-26T06:43:00,sdl,24.74
2022-04-26T06:44:00,sdl,24.71
2022-04-26T06:45:00,sdl,24.80
2022-04-26T06:46:00,sdl,24.82
2022-04-26T06:47:00,sdl,24.48
2022-04-26T06:48:00,sdl,24.48
2022-04-26T06:49:00,sdl,24.81
2022-04-26T06:50:00,sdl,24.79
2022-04-26T06:51:00,sdl,24.40
2022-04-26T06:52:00,sdl,23.86
2022-04-26T06:53:00,sdl,22.89
2022-04-26T06:54:00,sdl,22.58
2022-04-26T06:55:00,sdl,22.51
2022-04-26T06:56:00,sdl,22.43
2022-04-26T06:57:00,sdl,22.59
2022-04-26T06:58:00,sdl,22.63
2022-04-26T06:59:00,sdl,22.61
2022-04-26T07:00:00,sdl,22.71
2022-04-26T07:01:00,sdl,22.64
2022-04-26T07:02:00,sdl,22.65
2022-04-26T07:03:00,sdl,22.55
2022-04-26T07:04:00,sdl,23.23
2022-04-26T07:05:00,sdl,22.60
2022-04-26T07:06:00,sdl,24.92
2022-04-26T07:07:00,sdl,24.86
2022-04-26T07:08:00,sdl,25.95
2022-04-26T07:09:00,sdl,24.89
2022-04-26T07:10:00,sdl,24.90
2022-04-26T07:11:00,sdl,24.98
2022-04-26T07:12:00,sdl,24.97
2022-04-26T07:13:00,sdl,25.00
2022-04-26T07:14:00,sdl,24.93
2022-04-26T07:15:00,sdl,24.95
2022-04-26T07:16:00,sdl,25.31
2022-04-26T07:17:00,sdl,24.96
2022-04-26T07:18:00,sdl,25.80
2022-04-26T07:19:00,sdl,25.07
2022-04-26T07:20:00,sdl,24.78
2022-04-26T07:21:00,sdl,25.70
2022-04-26T07:22:00,sdl,22.34
2022-04-26T07:23:00,sdl,22.35
2022-04-26T07:24:00,sdl,22.59
2022-04-26T07:25:00,sdl,22.52
2022-04-26T07:26:00,sdl,22.50
2022-04-26T07:27:00,sdl,22.45
2022-04-26T07:28:00,sdl,22.33
2022-04-26T07:29:00,sdl,22.35
2022-04-26T07:30:00,sdl,22.32
2022-04-26T07:31:00,sdl,22.89
2022-04-26T07:32:00,sdl,22.13
2022-04-26T07:33:00,sdl,22.14
2022-04-26T07:34:00,sdl,22.24
2022-04-26T07:35:00,sdl,22.46
2022-04-26T07:36:00,sdl,22.46
2022-04-26T07:37:00,sdl,23.56
2022-04-26T07:38:00,sdl,22.43
2022-04-26T07:39:00,sdl,22.48
2022-04-26T07:40:00,sdl,22.25
2022-04-26T07:41:00,sdl,22.07
2022-04-26T07:42:00,sdl,23.47
2022-04-26T07:43:00,sdl,22.29
2022-04-26T07:44:00,sdl,22.34
2022-04-26T07:45:00,sdl,22.36
2022-04-26T07:46:00,sdl,22.53
2022-04-26T07:47:00,sdl,22.63
2022-04-26T07:48:00,sdl,22.55
2022-04-26T07:49:00,sdl,22.70
2022-04-26T07:50:00,sdl,22.61
2022-04-26T07:51:00,sdl,22.62
2022-04-26T07:52:00,sdl,23.91
2022-04-26T07:53:00,sdl,22.73
2022-04-26T07:54:00,sdl,22.40
2022-04-26T07:55:00,sdl,22.25
2022-04-26T07:56:00,sdl,22.26
2022-04-26T07:57:00,sdl,24.43
2022-04-26T07:58:00,sdl,24.59
2022-04-26T07:59:00,sdl,24.58
2022-04-26T08:00:00,sdl,24.47
2022-04-26T08:01:00,sdl,24.54
2022-04-26T08:02:00,sdl,24.61
2022-04-26T08:03:00,sdl,24.70
2022-04-26T08:04:00,sdl,24.49
2022-04-26T08:05:00,sdl,24.52
2022-04-26T08:06:00,sdl,24.56
2022-04-26T08:07:00,sdl,24.68
2022-04-26T08:08:00,sdl,24.95
2022-04-26T08:09:00,sdl,25.03
2022-04-26T08:10:00,sdl,25.11
2022-04-26T08:11:00,sdl,22.85
2022-04-26T08:12:00,sdl,22.91
2022-04-26T08:13:00,sdl,22.80
2022-04-26T08:14:00,sdl,22.92
2022-04-26T08:15:00,sdl,22.82
2022-04-26T08:16:00,sdl,22.82
2022-04-26T08:17:00,sdl,22.64
2022-04-26T08:18:00,sdl,22.66
2022-04-26T08:19:00,sdl,22.66
2022-04-26T08:20:00,sdl,23.20
2022-04-26T08:21:00,sdl,23.16
2022-04-26T08:22:00,sdl,22.83
2022-04-26T08:23:00,sdl,22.94
2022-04-26T08:24:00,sdl,23.03
2022-04-26T08:25:00,sdl,25.42
2022-04-26T08:26:00,sdl,25.47
2022-04-26T08:27:00,sdl,25.65
2022-04-26T08:28:00,sdl,25.77
2022-04-26T08:29:00,sdl,25.70
2022-04-26T08:30:00,sdl,27.06
2022-04-26T08:31:00,sdl,26.98
2022-04-26T08:32:00,sdl,26.94
2022-04-26T08:33:00,sdl,27.01
2022-04-26T08:34:00,sdl,25.75
2022-04-26T08:35:00,sdl,25.80
2022-04-26T08:36:00,sdl,26.86
2022-04-26T08:37:00,sdl,23.99
2022-04-26T08:38:00,sdl,23.61
2022-04-26T08:39:00,sdl,23.64
2022-04-26T08:40:00,sdl,23.39
2022-04-26T08:41:00,sdl,23.79
2022-04-26T08:42:00,sdl,23.44
2022-04-26T08:43:00,sdl,23.48
2022-04-26T08:44:00,sdl,23.41
2022-04-26T08:45:00,sdl,23.46
2022-04-26T08:46:00,sdl,23.52
2022-04-26T08:47:00,sdl,23.90
2022-04-26T08:48:00,sdl,24.14
2022-04-26T08:49:00,sdl,23.81
2022-04-26T08:50:00,sdl,23.77
2022-04-26T08:51:00,sdl,23.72
2022-04-26T08:52:00,sdl,23.70
2022-04-26T08:53:00,sdl,23.81
2022-04-26T08:54:00,sdl,24.22
2022-04-26T08:55:00,sdl,24.23
2022-04-26T08:56:00,sdl,24.38
2022-04-26T08:57:00,sdl,24.20
2022-04-26T08:58:00,sdl,24.18
2022-04-26T08:59:00,sdl,24.68
2022-04-26T09:00:00,sdl,24.79
2022-04-26T09:01:00,sdl,26.63
2022-04-26T09:02:00,sdl,26.73
2022-04-26T09:03:00,sdl,26.83
2022-04-26T09:04:00,sdl,27.02
2022-04-26T09:05:00,sdl,26.91
2022-04-26T09:06:00,sdl,28.02
2022-04-26T09:07:00,sdl,27.05
2022-04-26T09:08:00,sdl,27.63
2022-04-26T09:09:00,sdl,26.70
2022-04-26T09:10:00,sdl,26.75
2022-04-26T09:11:00,sdl,26.96
2022-04-26T09:12:00,sdl,26.81
2022-04-26T09:13:00,sdl,26.79
2022-04-26T09:14:00,sdl,26.82
2022-04-26T09:15:00,sdl,26.87
2022-04-26T09:16:00,sdl,26.78
2022-04-26T09:17:00,sdl,26.73
2022-04-26T09:18:00,sdl,27.08
2022-04-26T09:19:00,sdl,24.86
2022-04-26T09:20:00,sdl,25.17
2022-04-26T09:21:00,sdl,24.47
2022-04-26T09:22:00,sdl,24.48
2022-04-26T09:23:00,sdl,24.80
2022-04-26T09:24:00,sdl,24.75
2022-04-26T09:25:00,sdl,25.16
2022-04-26T09:26:00,sdl,24.73
2022-04-26T09:27:00,sdl,25.12
2022-04-26T09:28:00,sdl,25.23
2022-04-26T09:29:00,sdl,25.19
2022-04-26T09:30:00,sdl,24.58
2022-04-26T09:31:00,sdl,24.73
2022-04-26T09:32:00,sdl,24.84
2022-04-26T09:33:00,sdl,24.78
2022-04-26T09:34:00,sdl,24.60
2022-04-26T09:35:00,sdl,24.59
2022-04-26T09:36:00,sdl,24.66
2022-04-26T09:37:00,sdl,24.64
2022-04-26T09:38:00,sdl,24.65
2022-04-26T09:39:00,sdl,24.54
2022-04-26T09:40:00,sdl,24.54
2022-04-26T09:41:00,sdl,24.43
2022-04-26T09:42:00,sdl,24.50
2022-04-26T09:43:00,sdl,24.47
2022-04-26T09:44:00,sdl,24.51
2022-04-26T09:45:00,sdl,24.54
2022-04-26T09:46:00,sdl,24.79
2022-04-26T09:47:00,sdl,24.82
2022-04-26T09:48:00,sdl,25.53
2022-04-26T09:49:00,sdl,24.89
2022-04-26T09:50:00,sdl,24.71
2022-04-26T09:51:00,sdl,24.89
2022-04-26T09:52:00,sdl,27.32
2022-04-26T09:53:00,sdl,27.26
2022-04-26T09:54:00,sdl,27.03
2022-04-26T09:55:00,sdl,27.09
2022-04-26T09:56:00,sdl,27.18
2022-04-26T09:57:00,sdl,27.33
2022-04-26T09:58:00,sdl,27.12
2022-04-26T09:59:00,sdl,27.28
2022-04-26T10:00:00,sdl,27.41
2022-04-26T10:01:00,sdl,27.16
2022-04-26T10:02:00,sdl,27.28
2022-04-26T10:03:00,sdl,24.89
2022-04-26T10:04:00,sdl,24.87
2022-04-26T10:05:00,sdl,24.86
2022-04-26T10:06:00,sdl,24.93
2022-04-26T10:07:00,sdl,24.84
2022-04-26T10:08:00,sdl,25.35
2022-04-26T10:09:00,sdl,24.89
2022-04-26T10:10:00,sdl,24.73
2022-04-26T10:11:00,sdl,25.35
2022-04-26T10:12:00,sdl,25.33
2022-04-26T10:13:00,sdl,25.22
2022-04-26T10:14:00,sdl,25.26
2022-04-26T10:15:00,sdl,25.27
2022-04-26T10:16:00,sdl,24.94
2022-04-26T10:17:00,sdl,27.13
2022-04-26T10:18:00,sdl,27.07
2022-04-26T10:19:00,sdl,28.23
2022-04-26T10:20:00,sdl,27.03
2022-04-26T10:21:00,sdl,27.12
2022-04-26T10:22:00,sdl,27.29
2022-04-26T10:23:00,sdl,27.31
2022-04-26T10:24:00,sdl,27.71
2022-04-26T10:25:00,sdl,27.17
2022-04-26T10:26:00,sdl,27.13
2022-04-26T10:27:00,sdl,27.03
2022-04-26T10:28:00,sdl,27.11
2022-04-26T10:29:00,sdl,28.38
2022-04-26T10:30:00,sdl,28.42
2022-04-26T10:31:00,sdl,28.38
2022-04-26T10:32:00,sdl,26.23
2022-04-26T10:33:00,sdl,25.04
2022-04-26T10:34:00,sdl,25.45
2022-04-26T10:35:00,sdl,25.43
2022-04-26T10:36:00,sdl,26.57
2022-04-26T10:37:00,sdl,25.03
2022-04-26T10:38:00,sdl,24.96
2022-04-26T10:39:00,sdl,24.97
2022-04-26T10:40:00,sdl,25.03
2022-04-26T10:41:00,sdl,25.19
2022-04-26T10:42:00,sdl,25.30
2022-04-26T10:43:00,sdl,24.76
2022-04-26T10:44:00,sdl,24.85
2022-04-26T10:45:00,sdl,25.30
2022-04-26T10:46:00,sdl,26.09
2022-04-26T10:47:00,sdl,26.34
2022-04-26T10:48:00,sdl,27.32
2022-04-26T10:49:00,sdl,26.40
2022-04-26T10:50:00,sdl,26.56
2022-04-26T10:51:00,sdl,27.57
2022-04-26T10:52:00,sdl,27.50
2022-04-26T10:53:00,sdl,27.92
2022-04-26T10:54:00,sdl,27.60
2022-04-26T10:55:00,sdl,27.38
2022-04-26T10:56:00,sdl,27.62
2022-04-26T10:57:00,sdl,29.66
2022-04-26T10:58:00,sdl,29.19
2022-04-26T10:59:00,sdl,28.67
2022-04-26T11:00:00,sdl,28.60
2022-04-26T11:01:00,sdl,30.87
2022-04-26T11:02:00,sdl,30.91
2022-04-26T11:03:00,sdl,30.74
2022-04-26T11:04:00,sdl,30.82
2022-04-26T11:05:00,sdl,31.31
2022-04-26T11:06:00,sdl,31.35
2022-04-26T11:07:00,sdl,31.31
2022-04-26T11:08:00,sdl,31.49
2022-04-26T11:09:00,sdl,31.74
2022-04-26T11:10:00,sdl,31.70
2022-04-26T11:11:00,sdl,31.23
2022-04-26T11:12:00,sdl,31.84
2022-04-26T11:13:00,sdl,31.76
2022-04-26T11:14:00,sdl,31.71
2022-04-26T11:15:00,sdl,31.98
2022-04-26T11:16:00,sdl,32.20
2022-04-26T11:17:00,sdl,30.84
2022-04-26T11:18:00,sdl,30.90
2022-04-26T11:19:00,sdl,28.76
2022-04-26T11:20:00,sdl,28.64
2022-04-26T11:21:00,sdl,29.16
2022-04-26T11:22:00,sdl,28.67
2022-04-26T11:23:00,sdl,29.03
2022-04-26T11:24:00,sdl,29.11
2022-04-26T11:25:00,sdl,29.27
2022-04-26T11:26:00,sdl,29.15
2022-04-26T11:27:00,sdl,29.16
2022-04-26T11:28:00,sdl,29.21
2022-04-26T11:29:00,sdl,29.07
2022-04-26T11:30:00,sdl,29.43
2022-04-26T11:31:00,sdl,30.29
2022-04-26T11:32:00,sdl,29.40
2022-04-26T11:33:00,sdl,29.24
2022-04-26T11:34:00,sdl,29.45
2022-04-26T11:35:00,sdl,29.05
2022-04-26T11:36:00,sdl,29.07
2022-04-26T11:37:00,sdl,29.07
2022-04-26T11:38:00,sdl,31.37
2022-04-26T11:39:00,sdl,31.58
2022-04-26T11:40:00,sdl,31.49
2022-04-26T11:41:00,sdl,31.48
2022-04-26T11:42:00,sdl,31.75
2022-04-26T11:43:00,sdl,31.31
2022-04-26T11:44:00,sdl,31.31
2022-04-26T11:45:00,sdl,32.45
2022-04-26T11:46:00,sdl,31.33
2022-04-26T11:47:00,sdl,31.37
2022-04-26T11:48:00,sdl,29.09
2022-04-26T11:49:00,sdl,29.16
2022-04-26T11:50:00,sdl,29.17
2022-04-26T11:51:00,sdl,29.21
2022-04-26T11:52:00,sdl,29.13
2022-04-26T11:53:00,sdl,29.21
2022-04-26T11:54:00,sdl,29.00
2022-04-26T11:55:00,sdl,28.99
2022-04-26T11:56:00,sdl,30.47
2022-04-26T11:57:00,sdl,29.04
2022-04-26T11:58:00,sdl,29.07
2022-04-26T11:59:00,sdl,28.78
2022-04-26T12:00:00,sdl,30.10
2022-04-26T12:01:00,sdl,28.93
2022-04-26T12:02:00,sdl,31.03
2022-04-26T12:03:00,sdl,31.09
2022-04-26T12:04:00,sdl,31.06
2022-04-26T12:05:00,sdl,31.17
2022-04-26T12:06:00,sdl,30.65
2022-04-26T12:07:00,sdl,31.00
2022-04-26T12:08:00,sdl,30.61
2022-04-26T12:09:00,sdl,30.36
2022-04-26T12:10:00,sdl,30.46
2022-04-26T12:11:00,sdl,30.50
2022-04-26T12:12:00,sdl,31.22
2022-04-26T12:13:00,sdl,30.70
2022-04-26T12:14:00,sdl,30.57
2022-04-26T12:15:00,sdl,31.78
2022-04-26T12:16:00,sdl,31.68
2022-04-26T12:17:00,sdl,32.14
2022-04-26T12:18:00,sdl,31.83
2022-04-26T12:19:00,sdl,32.04
2022-04-26T12:20:00,sdl,32.37
2022-04-26T12:21:00,sdl,31.76
2022-04-26T12:22:00,sdl,30.96
2022-04-26T12:23:00,sdl,30.81
2022-04-26T12:24:00,sdl,29.01
2022-04-26T12:25:00,sdl,29.26
2022-04-26T12:26:00,sdl,29.94
2022-04-26T12:27:00,sdl,26.98
2022-04-26T12:28:00,sdl,26.91
2022-04-26T12:29:00,sdl,27.00
2022-04-26T12:30:00,sdl,27.01
2022-04-26T12:31:00,sdl,26.86
2022-04-26T12:32:00,sdl,26.85
2022-04-26T12:33:00,sdl,27.10
2022-04-26T12:34:00,sdl,27.29
2022-04-26T12:35:00,sdl,26.90
2022-04-26T12:36:00,sdl,27.29
2022-04-26T12:37:00,sdl,26.77
2022-04-26T12:38:00,sdl,27.33
2022-04-26T12:39:00,sdl,27.10
2022-04-26T12:40:00,sdl,27.35
2022-04-26T12:41:00,sdl,27.13
2022-04-26T12:42:00,sdl,27.07
2022-04-26T12:43:00,sdl,26.99
2022-04-26T12:44:00,sdl,28.39
2022-04-26T12:45:00,sdl,27.36
2022-04-26T12:46:00,sdl,27.67
2022-04-26T12:47:00,sdl,27.09
2022-04-26T12:48:00,sdl,27.53
2022-04-26T12:49:00,sdl,26.91
2022-04-26T12:50:00,sdl,26.93
2022-04-26T12:51:00,sdl,26.86
2022-04-26T12:52:00,sdl,26.86
2022-04-26T12:53:00,sdl,26.77
2022-04-26T12:54:00,sdl,27.19
2022-04-26T12:55:00,sdl,29.00
2022-04-26T12:56:00,sdl,29.04
2022-04-26T12:57:00,sdl,29.17
2022-04-26T12:58:00,sdl,29.34
2022-04-26T12:59:00,sdl,30.40
2022-04-26T13:00:00,sdl,29.31
2022-04-26T13:01:00,sdl,29.43
2022-04-26T13:02:00,sdl,29.35
2022-04-26T13:03:00,sdl,29.30
2022-04-26T13:04:00,sdl,30.30
2022-04-26T13:05:00,sdl,29.04
2022-04-26T13:06:00,sdl,29.08
2022-04-26T13:07:00,sdl,29.09
2022-04-26T13:08:00,sdl,29.54
2022-04-26T13:09:00,sdl,26.82
2022-04-26T13:10:00,sdl,27.37
2022-04-26T13:11:00,sdl,26.73
2022-04-26T13:12:00,sdl,26.66
2022-04-26T13:13:00,sdl,26.83
2022-04-26T13:14:00,sdl,26.62
2022-04-26T13:15:00,sdl,26.73
2022-04-26T13:16:00,sdl,26.78
2022-04-26T13:17:00,sdl,26.73
2022-04-26T13:18:00,sdl,26.91